Location: Melham
(44.5575°N, 97.6865°W)
Time: 06:02:18
(UTC+00:00)

N. Korean satellite - Visible Passes

Search period start: 25 November 2020 00:00
Search period end: 05 December 2020 00:00
Orbit: 452 x 504 km, 97.2° (Epoch: 24 November)

Date Brightness Start Highest point End Pass type
(mag) Time Alt. Az. Time Alt. Az. Time Alt. Az.
25 Nov 9.7 00:08:17 10° SW 00:10:30 16° W 00:12:44 10° NW visible
25 Nov 8.5 11:31:05 10° NNE 11:34:17 30° E 11:37:30 10° SSE visible
25 Nov 8.0 13:04:54 10° NNW 13:07:25 18° WNW 13:09:57 10° WSW visible
25 Nov 8.4 23:40:58 10° SSW 23:44:05 33° W 23:47:14 10° NNW visible
26 Nov 9.7 11:05:39 10° NE 11:07:52 15° E 11:10:04 10° SE visible
26 Nov 7.1 12:38:01 10° N 12:41:19 36° WNW 12:44:39 10° SW visible
27 Nov 6.4 12:11:32 10° N 12:15:07 78° WNW 12:18:45 10° SSW visible
28 Nov 10.1 00:24:11 10° WSW 00:25:08 11° W 00:26:04 10° WNW visible
28 Nov 7.6 11:45:20 10° NNE 11:48:50 47° E 11:52:20 10° S visible
28 Nov 9.3 23:55:53 10° SSW 23:58:38 22° W 00:01:23 10° NW visible
29 Nov 9.1 11:19:31 10° NE 11:22:26 23° E 11:25:21 10° SSE visible
29 Nov 7.6 12:52:44 10° NNW 12:55:43 25° WNW 12:58:43 10° SW visible
29 Nov 7.6 23:28:54 10° S 23:32:12 48° W 23:35:34 10° NNW visible
30 Nov 10.1 10:54:42 10° ENE 10:55:56 11° E 10:57:12 10° ESE visible
30 Nov 6.7 12:26:02 10° N 12:29:33 50° WNW 12:33:05 10° SSW visible
01 Dec 6.7 11:59:39 10° NNE 12:03:17 74° ESE 12:06:56 10° S visible
02 Dec 9.7 00:11:03 10° SW 00:13:07 15° W 00:15:13 10° NW visible
02 Dec 8.3 11:33:35 10° NNE 11:36:55 33° E 11:40:16 10° SSE visible
02 Dec 8.1 13:07:32 10° NNW 13:10:01 18° WNW 13:12:29 10° WSW visible
02 Dec 8.6 23:43:33 10° SSW 23:46:38 31° W 23:49:46 10° NNW visible
03 Dec 9.6 11:08:00 10° NE 11:10:27 17° E 11:12:55 10° SE visible
03 Dec 7.2 12:40:34 10° N 12:43:53 33° WNW 12:47:12 10° SW visible
03 Dec 6.8 23:16:50 10° S 23:20:14 71° WSW 23:23:43 10° NNW visible
04 Dec 6.5 12:14:00 10° N 12:17:38 72° WNW 12:21:18 10° SSW visible
